Location: ??????
(55.2000°N, 38.3000°E)
Time: 08:42:08
(UTC+00:00)

Cosmos 1725 Rocket - Pass Details

Date: 15 November 2025
Orbit: 961 x 989 km, 82.9° (Epoch: 14 December)

Event Time Altitude Azimuth Distance (km) Brightness Sun altitude
Rises 00:49:55 0° 349° (N) 3,717 7.1 -35.0°
Reaches altitude 10° 00:52:31 10° 353° (N) 2,765 6.5 -34.7°
Maximum altitude 00:58:47 59° 73° (ENE) 1,139 4.5 -33.8°
Drops below altitude 10° 01:04:59 10° 152° (SSE) 2,740 6.4 -33.0°
Sets 01:07:32 0° 157° (SSE) 3,681 7.1 -32.6°
